Change the Weather History Date:

Wednesday, September 18, 2013

  Actual Average Record
Temperature  
Mean Temperature 80 °F -  
Max Temperature 93 °F 80 °F 100 °F (1954)
Min Temperature 70 °F 55 °F 39 °F (1973)
Cooling Degree Days 16    
Growing Degree Days 30 (Base 50)    
Moisture  
Dew Point 64 °F    
Average Humidity 60    
Maximum Humidity 84    
Minimum Humidity 38    
Precipitation  
Precipitation 0.00 in - - ()
Sea Level Pressure  
Sea Level Pressure 29.73 in    
Wind  
Wind Speed 19 mph (South)    
Max Wind Speed 30 mph    
Max Gust Speed 39 mph    
Visibility 10 miles    
Events      
Averages and records for this station are not official NWS values.
T = Trace of Precipitation, MM = Missing Value Source: NWS Daily Summary

Daily Weather History Graph

Daily Weather History Graph

Search for Another Location

Airport or City:

Trip Planner

Search our weather history database for the weather conditions in past years. The results will help you decide how hot, cold, wet, or windy it might be!

Date:

Astronomy

Sep. 18, 2013 Rise Set
Actual Time 7:19 AM CDT 7:38 PM CDT
Civil Twilight 6:52 AM CDT 8:04 PM CDT
Nautical Twilight 6:21 AM CDT 8:36 PM CDT
Astronomical Twilight 5:49 AM CDT 9:07 PM CDT
Moon 7:02 PM CDT (9/18) 6:23 AM CDT (9/18)
Length of Visible Light 13h 11m
Length of Day
12h 18m
Waxing Gibbous, 99% of the Moon is Illuminated
Sep 18
Waxing Gibbous
Sep 19
Full
Sep 26
Last Quarter
Oct 4
New
Oct 11
First Quarter

Hourly Weather History & Observations

Time (CDT) Temp. Heat Index Dew Point Humidity Pressure Visibility Wind Dir Wind Speed Gust Speed Precip Events Conditions
12:53 AM 72.0 °F - 66.0 °F 81% 29.83 in 10.0 mi South 13.8 mph - N/A   Clear
1:53 AM 71.1 °F - 64.9 °F 81% 29.82 in 10.0 mi South 13.8 mph - N/A   Clear
2:53 AM 71.1 °F - 64.9 °F 81% 29.81 in 10.0 mi South 16.1 mph - N/A   Clear
3:53 AM 71.1 °F - 64.9 °F 81% 29.79 in 10.0 mi South 15.0 mph 23.0 mph N/A   Clear
4:53 AM 71.1 °F - 64.9 °F 81% 29.77 in 10.0 mi South 15.0 mph - N/A   Clear
5:53 AM 71.1 °F - 64.9 °F 81% 29.77 in 10.0 mi North - - N/A   Clear
6:53 AM 70.0 °F - 64.9 °F 84% 29.77 in 10.0 mi South 16.1 mph - N/A   Clear
7:53 AM 71.1 °F - 66.0 °F 84% 29.77 in 10.0 mi South 17.3 mph 25.3 mph N/A   Clear
8:53 AM 75.0 °F - 66.0 °F 73% 29.76 in 10.0 mi South 25.3 mph 32.2 mph N/A   Clear
9:53 AM 79.0 °F - 66.0 °F 64% 29.76 in 10.0 mi South 24.2 mph 34.5 mph N/A   Clear
10:53 AM 82.0 °F 83.8 °F 64.9 °F 56% 29.75 in 10.0 mi SSW 28.8 mph 38.0 mph N/A   Clear
11:53 AM 84.0 °F 86.3 °F 66.0 °F 55% 29.72 in 10.0 mi SSW 29.9 mph 39.1 mph N/A   Clear
12:53 PM 88.0 °F 90.3 °F 66.0 °F 48% 29.71 in 10.0 mi South 28.8 mph 36.8 mph N/A   Clear
1:53 PM 89.1 °F 91.0 °F 64.9 °F 45% 29.70 in 10.0 mi South 26.5 mph 34.5 mph N/A   Clear
2:53 PM 91.0 °F 93.0 °F 64.9 °F 42% 29.67 in 10.0 mi South 21.9 mph 35.7 mph N/A   Clear
3:53 PM 91.9 °F 92.9 °F 63.0 °F 38% 29.66 in 10.0 mi South 26.5 mph 35.7 mph N/A   Clear
4:53 PM 91.0 °F 91.5 °F 62.1 °F 38% 29.65 in 10.0 mi SSW 25.3 mph 35.7 mph N/A   Clear
5:53 PM 91.0 °F 91.5 °F 62.1 °F 38% 29.65 in 10.0 mi SSW 23.0 mph 34.5 mph N/A   Clear
6:53 PM 88.0 °F 88.4 °F 62.1 °F 42% 29.65 in 10.0 mi South 15.0 mph 26.5 mph N/A   Clear
7:53 PM 84.0 °F 84.4 °F 61.0 °F 46% 29.67 in 10.0 mi South 15.0 mph - N/A   Clear
8:53 PM 81.0 °F 81.6 °F 60.1 °F 49% 29.69 in 10.0 mi South 16.1 mph - N/A   Clear
9:53 PM 80.1 °F 80.7 °F 59.0 °F 48% 29.71 in 10.0 mi South 19.6 mph 27.6 mph N/A   Clear
10:53 PM 79.0 °F - 60.1 °F 52% 29.72 in 10.0 mi South 18.4 mph - N/A   Clear
11:53 PM 77.0 °F - 60.1 °F 56% 29.72 in 10.0 mi South 16.1 mph - N/A   Clear